Jackson, TN

11:16 PM CDT on April 29, 2017 (GMT -0500)
McKellar-Sipes Regional

Weather History for KMKL - November, 2011

Change the Weather History Date:

Friday, November 18, 2011

  Actual Average Record
Temperature  
Mean Temperature 40 °F 49 °F  
Max Temperature 58 °F 60 °F 80 °F (2016)
Min Temperature 22 °F 38 °F 16 °F (1959)
Degree Days  
Heating Degree Days 25 16  
Month to date heating degree days 205 232  
Since 1 July heating degree days 447 446  
Cooling Degree Days 0 0  
Month to date cooling degree days 12 2  
Year to date cooling degree days 1936 1693  
Moisture  
Dew Point 22 °F    
Average Humidity 57    
Maximum Humidity 96    
Minimum Humidity 17    
Precipitation  
Precipitation 0.00 in 0.18 in 3.38 in (1948)
Month to date precipitation 2.14 2.72  
Year to date precipitation 45.14 45.74  
Snow  
Snow 0.00 in 0.00 in 0.00 in (2002)
Month to date snowfall 0.0 0.0  
Since 1 July snowfall 0.0 0.0  
Since 1 September snowfall 0.0 0.0  
Snow Depth -    
Sea Level Pressure  
Sea Level Pressure 30.28 in    
Wind  
Wind Speed 4 mph (SSE)    
Max Wind Speed 16 mph    
Max Gust Speed 24 mph    
Visibility 10 miles    
Events      
T = Trace of Precipitation, MM = Missing Value Source: NWS Daily Summary

Daily Weather History Graph

Daily Weather History Graph

Search for Another Location

Airport or City:

Trip Planner

Search our weather history database for the weather conditions in past years. The results will help you decide how hot, cold, wet, or windy it might be!

Date:

Astronomy

Nov. 18, 2011 Rise Set
Actual Time 6:34 AM CST 4:47 PM CST
Civil Twilight 6:06 AM CST 5:14 PM CST
Nautical Twilight 5:35 AM CST 5:45 PM CST
Astronomical Twilight 5:05 AM CST 6:15 PM CST
Moon No Moon Rise 12:19 PM CST (11/18)
Length of Visible Light 11h 07m
Length of Day
10h 13m
Waning Gibbous, 49% of the Moon is Illuminated
Nov 18
Waning Gibbous
Nov 25
New
Dec 2
First Quarter
Dec 10
Full
Dec 17
Last Quarter

Hourly Weather History & Observations

Time (CST) Temp. Windchill Dew Point Humidity Pressure Visibility Wind Dir Wind Speed Gust Speed Precip Events Conditions
12:53 AM 24.1 °F - 21.9 °F 91% 30.38 in 10.0 mi Calm Calm - N/A   Clear
1:53 AM 25.0 °F - 21.9 °F 88% 30.38 in 10.0 mi Calm Calm - N/A   Clear
2:53 AM 24.8 °F - 21.2 °F 86% 30.37 in 10.0 mi Calm Calm - N/A   Clear
3:53 AM 24.1 °F - 21.0 °F 88% 30.38 in 10.0 mi Calm Calm - N/A   Clear
4:53 AM 23.0 °F - 21.0 °F 92% 30.39 in 10.0 mi Calm Calm - N/A   Clear
5:53 AM 24.8 °F - 19.4 °F 80% 30.38 in 10.0 mi Calm Calm - N/A   Clear
6:53 AM 24.1 °F - 21.0 °F 88% 30.40 in 10.0 mi Calm Calm - N/A   Clear
7:53 AM 32.0 °F - 26.1 °F 79% 30.40 in 10.0 mi Calm Calm - N/A   Clear
8:53 AM 41.0 °F 37.1 °F 24.1 °F 51% 30.39 in 10.0 mi Variable 5.8 mph - N/A   Clear
9:53 AM 46.9 °F - 21.9 °F 37% 30.37 in 10.0 mi ESE 5.8 mph - N/A   Clear
10:53 AM 51.1 °F - 9.0 °F 18% 30.34 in 10.0 mi South 12.7 mph 20.7 mph N/A   Clear
11:53 AM 53.1 °F - 12.9 °F 20% 30.29 in 10.0 mi SSE 8.1 mph 17.3 mph N/A   Clear
12:53 PM 55.0 °F - 16.0 °F 22% 30.25 in 10.0 mi South 6.9 mph - N/A   Clear
1:53 PM 55.0 °F - 17.1 °F 23% 30.23 in 10.0 mi South 6.9 mph - N/A   Clear
2:53 PM 57.9 °F - 19.0 °F 22% 30.20 in 10.0 mi South 9.2 mph - N/A   Clear
3:53 PM 57.0 °F - 21.0 °F 25% 30.18 in 10.0 mi SSE 5.8 mph - N/A   Clear
4:53 PM 53.1 °F - 21.9 °F 30% 30.17 in 10.0 mi SE 4.6 mph - N/A   Clear
5:53 PM 51.1 °F - 23.0 °F 33% 30.16 in 10.0 mi SSE 3.5 mph - N/A   Clear
6:53 PM 48.0 °F - 25.0 °F 41% 30.17 in 10.0 mi SSE 3.5 mph - N/A   Clear
7:53 PM 45.0 °F 42.6 °F 26.1 °F 48% 30.18 in 10.0 mi SSE 4.6 mph - N/A   Clear
8:53 PM 48.0 °F - 28.0 °F 46% 30.17 in 10.0 mi South 5.8 mph - N/A   Clear
9:53 PM 48.0 °F - 28.9 °F 48% 30.17 in 10.0 mi SSE 4.6 mph - N/A   Clear
10:53 PM 48.0 °F - 32.0 °F 54% 30.17 in 10.0 mi South 8.1 mph - N/A   Clear
11:53 PM 48.0 °F - 33.1 °F 56% 30.17 in 10.0 mi South 8.1 mph - N/A   Clear